User: anonymous   Login
Location: Newark
(40.9833°N, 0.0333°W)
Time: 15:08:14
(UTC+00:00)
Language:

AIST 2D - Orbit

View from above orbital plane
View from above orbital plane
View from above satellite
View from above satellite

Ground track
Ground track

The orbit data is extracted from the following two-line orbital elements,

1 41465U 16026B   19140.48551226  .00001448  00000-0  46720-4 0  9993
2 41465  97.1931  36.6183 0009712 221.6277 243.7015 15.33704304171028
Epoch (UTC): 20 May 2019 11:39:08
Eccentricity: 0.0009712
inclination: 97.1931°
perigee height: 458 km
apogee height: 471 km
right ascension of ascending node: 36.6183°
argument of perigee: 221.6277°
revolutions per day: 15.33704304
mean anomaly at epoch: 243.7015°
orbit number at epoch: 17102

The dashed part of the orbit path shows where the satellite is in the earth's shadow,  

DLR